Notices

What's New in latest Release from April 7th, 2021:

- Updated Glossary, including Speed of Maximum Gust, and Total Hourly Precipitation

- Updated national and regional climate services offices contacts and prices information

- Addition of station inventory lists for 1981-2010, 1971-2000, and 1961-1990 Normals.

If you haven't already, please take our survey and provide feedback about our website: https://eccc.sondage-survey.ca/f/LanguageSelection.aspx?s=442ca660-fcf1-47c0-95a9-59707d6fd709

Hourly Data Report for April 13, 2021

OTTAWA INTL A
ONTARIO
Current Station Operator: NAVCAN

45°19'00.000" N
75°40'00.000" W
114.90 m
6106001
71628
YOW

Download Data

Hourly Data (April 2021)
Hourly Data Report for April 13, 2021
TIME
LST
Temp Definition
°C
Dew Point Definition
°C
Rel Hum Definition
%
Precip. Amount Definition
mm

Wind Dir Definition
10's deg

Wind Spd Definition
km/h
Visibility Definition
km
Stn Press Definition
kPa
Hmdx Definition


Wind Chill Definition


Weather Definition


00:00 11.1 4.9 65   6 20 24.1 100.16     LegendNANA
01:00 10.8 4.8 66   7 8 24.1 100.21     Cloudy
02:00 10.6 4.5 66   8 16 24.1 100.23     LegendNANA
03:00 10.0 4.0 66   7 20 24.1 100.28     LegendNANA
04:00 9.5 4.0 68   8 16 24.1 100.34     Mostly Cloudy
05:00 8.9 3.9 71   6 17 24.1 100.42     LegendNANA
06:00 8.6 4.0 73   7 12 24.1 100.50     LegendNANA
07:00 8.7 4.1 73   7 19 24.1 100.54     Mostly Cloudy
08:00 10.2 4.7 68   8 13 24.1 100.56     LegendNANA
09:00 11.0 4.6 64   10 11 24.1 100.60     LegendNANA
10:00 13.3 5.4 58   9 8 24.1 100.58     Mostly Cloudy
11:00 14.6 4.5 50   13 3 24.1 100.55     LegendNANA
12:00 16.4 4.7 46   10 13 24.1 100.49     LegendNANA
13:00 16.5 3.4 41   13 3 24.1 100.43     Mostly Cloudy
14:00 16.9 5.2 45   13 8 24.1 100.37     LegendNANA
15:00 17.3 4.1 41   9 5 24.1 100.35     LegendNANA
16:00 17.5 3.8 40   13 8 24.1 100.34     Mostly Cloudy
17:00 17.2 3.5 40   15 9 24.1 100.32     LegendNANA
18:00 16.3 4.6 46   15 8 24.1 100.32     LegendNANA
19:00 15.0 5.1 51   26 13 24.1 100.36     Mostly Cloudy
20:00 13.9 5.1 55   28 9 24.1 100.40     LegendNANA
21:00 12.8 4.6 57   24 5 24.1 100.39     LegendNANA
22:00 12.2 4.6 60   36 2 24.1 100.40     Mainly Clear
23:00 10.6 5.0 68   19 6 24.1 100.37     LegendNANA

Notes on Data Quality.

Legend

  • E = Estimated
  • M = Missing
  • NA = Not Available*
  • [empty] = Indicates an unobserved value
Date modified: